Time,TemperatureF,DewpointF,PressureIn,WindDirection,WindDirectionDegrees,WindSpeedMPH,WindSpeedGustMPH,Humidity,HourlyPrecipIn,Conditions,Clouds,dailyrainin,SoftwareType,DateUTC
2013-09-24 00:01:00,66.1,53.0,29.71,SE,138,2.0,15.0,62,0.00,,,0.00,weatherlink.com 1.10,2013-09-24 05:01:00,
2013-09-24 00:16:00,65.9,53.0,29.70,SE,140,13.0,14.0,63,0.00,,,0.00,weatherlink.com 1.10,2013-09-24 05:16:00,
2013-09-24 00:30:00,65.8,53.0,29.70,SE,129,6.0,16.0,64,0.00,,,0.00,weatherlink.com 1.10,2013-09-24 05:30:00,
2013-09-24 00:45:00,65.6,53.0,29.70,ESE,110,5.0,13.0,64,0.00,,,0.00,weatherlink.com 1.10,2013-09-24 05:45:00,
2013-09-24 01:01:00,65.4,53.0,29.70,ESE,111,0.0,16.0,65,0.00,,,0.00,weatherlink.com 1.10,2013-09-24 06:01:00,
2013-09-24 01:16:00,65.2,53.0,29.69,SE,139,9.0,14.0,66,0.00,,,0.00,weatherlink.com 1.10,2013-09-24 06:16:00,
2013-09-24 01:31:00,65.0,54.0,29.70,SE,132,1.0,13.0,67,0.00,,,0.00,weatherlink.com 1.10,2013-09-24 06:31:00,
2013-09-24 01:46:00,64.7,54.0,29.69,East,87,2.0,13.0,68,0.00,,,0.00,weatherlink.com 1.10,2013-09-24 06:46:00,
2013-09-24 02:03:00,64.5,54.0,29.69,SSE,156,4.0,13.0,68,0.00,,,0.00,weatherlink.com 1.10,2013-09-24 07:03:00,
2013-09-24 02:18:00,64.3,54.0,29.69,SE,127,3.0,7.0,69,0.00,,,0.00,weatherlink.com 1.10,2013-09-24 07:18:00,
2013-09-24 02:33:00,64.1,54.0,29.69,ESE,122,3.0,11.0,70,0.00,,,0.00,weatherlink.com 1.10,2013-09-24 07:33:00,
2013-09-24 02:48:00,63.9,54.0,29.68,ESE,118,2.0,10.0,71,0.00,,,0.00,weatherlink.com 1.10,2013-09-24 07:48:00,
2013-09-24 03:03:00,64.0,54.0,29.69,East,101,0.0,9.0,71,0.00,,,0.00,weatherlink.com 1.10,2013-09-24 08:03:00,
2013-09-24 03:18:00,64.0,54.0,29.69,ESE,112,4.0,7.0,71,0.00,,,0.00,weatherlink.com 1.10,2013-09-24 08:18:00,
2013-09-24 03:33:00,63.9,55.0,29.69,East,81,0.0,6.0,72,0.00,,,0.00,weatherlink.com 1.10,2013-09-24 08:33:00,
2013-09-24 03:48:00,63.6,54.0,29.70,East,92,0.0,7.0,72,0.00,,,0.00,weatherlink.com 1.10,2013-09-24 08:48:00,
2013-09-24 04:05:00,63.5,54.0,29.70,SE,124,3.0,7.0,72,0.00,,,0.00,weatherlink.com 1.10,2013-09-24 09:05:00,
2013-09-24 04:20:00,63.4,55.0,29.70,East,89,2.0,6.0,73,0.00,,,0.00,weatherlink.com 1.10,2013-09-24 09:20:00,
2013-09-24 04:36:00,63.1,55.0,29.70,East,91,3.0,7.0,74,0.00,,,0.00,weatherlink.com 1.10,2013-09-24 09:36:00,
2013-09-24 04:51:00,62.7,54.0,29.70,East,98,0.0,6.0,74,0.00,,,0.00,weatherlink.com 1.10,2013-09-24 09:51:00,
2013-09-24 05:06:00,62.2,54.0,29.71,NE,44,0.0,6.0,75,0.00,,,0.00,weatherlink.com 1.10,2013-09-24 10:06:00,
2013-09-24 05:21:00,61.5,54.0,29.71,East,100,1.0,6.0,77,0.00,,,0.00,weatherlink.com 1.10,2013-09-24 10:21:00,
2013-09-24 05:37:00,61.1,54.0,29.72,East,98,0.0,3.0,78,0.00,,,0.00,weatherlink.com 1.10,2013-09-24 10:37:00,
2013-09-24 05:51:00,60.8,54.0,29.71,East,97,3.0,5.0,79,0.00,,,0.00,weatherlink.com 1.10,2013-09-24 10:51:00,
2013-09-24 06:07:00,60.7,54.0,29.72,East,99,0.0,5.0,79,0.00,,,0.00,weatherlink.com 1.10,2013-09-24 11:07:00,
2013-09-24 06:22:00,60.7,55.0,29.73,East,97,3.0,4.0,80,0.00,,,0.00,weatherlink.com 1.10,2013-09-24 11:22:00,
2013-09-24 06:37:00,60.4,55.0,29.73,East,97,0.0,1.0,81,0.00,,,0.00,weatherlink.com 1.10,2013-09-24 11:37:00,
2013-09-24 06:52:00,60.2,55.0,29.74,East,97,0.0,0.0,82,0.00,,,0.00,weatherlink.com 1.10,2013-09-24 11:52:00,
2013-09-24 07:08:00,59.9,54.0,29.74,East,97,0.0,3.0,82,0.00,,,0.00,weatherlink.com 1.10,2013-09-24 12:08:00,
2013-09-24 07:23:00,59.6,54.0,29.75,East,97,0.0,0.0,82,0.00,,,0.00,weatherlink.com 1.10,2013-09-24 12:23:00,
2013-09-24 07:43:00,58.7,54.0,29.75,East,97,0.0,0.0,83,0.00,,,0.00,weatherlink.com 1.10,2013-09-24 12:43:00,
2013-09-24 07:55:00,58.9,54.0,29.75,East,97,1.0,4.0,84,0.00,,,0.00,weatherlink.com 1.10,2013-09-24 12:55:00,
2013-09-24 08:10:00,59.7,55.0,29.77,North,10,0.0,2.0,84,0.00,,,0.00,weatherlink.com 1.10,2013-09-24 13:10:00,
2013-09-24 08:26:00,60.9,56.0,29.77,North,6,0.0,4.0,83,0.00,,,0.00,weatherlink.com 1.10,2013-09-24 13:26:00,
2013-09-24 08:41:00,61.1,56.0,29.78,North,5,0.0,1.0,82,0.00,,,0.00,weatherlink.com 1.10,2013-09-24 13:41:00,
2013-09-24 08:55:00,62.3,57.0,29.78,North,6,1.0,5.0,82,0.00,,,0.00,weatherlink.com 1.10,2013-09-24 13:55:00,
2013-09-24 09:10:00,63.5,56.0,29.79,North,356,5.0,8.0,77,0.00,,,0.00,weatherlink.com 1.10,2013-09-24 14:10:00,
2013-09-24 09:25:00,63.0,56.0,29.79,North,354,3.0,7.0,77,0.00,,,0.00,weatherlink.com 1.10,2013-09-24 14:25:00,
2013-09-24 09:41:00,62.9,56.0,29.80,North,3,2.0,6.0,78,0.00,,,0.00,weatherlink.com 1.10,2013-09-24 14:41:00,
2013-09-24 09:56:00,63.5,57.0,29.80,North,358,4.0,8.0,78,0.00,,,0.00,weatherlink.com 1.10,2013-09-24 14:56:00,
2013-09-24 10:11:00,65.1,57.0,29.81,NNE,23,5.0,7.0,74,0.00,,,0.00,weatherlink.com 1.10,2013-09-24 15:11:00,
2013-09-24 10:26:00,66.5,58.0,29.82,North,4,4.0,8.0,73,0.00,,,0.00,weatherlink.com 1.10,2013-09-24 15:26:00,
2013-09-24 10:40:00,67.6,57.0,29.82,NW,306,1.0,8.0,69,0.00,,,0.00,weatherlink.com 1.10,2013-09-24 15:40:00,
2013-09-24 10:57:00,65.8,57.0,29.82,North,4,7.0,11.0,72,0.00,,,0.00,weatherlink.com 1.10,2013-09-24 15:57:00,
2013-09-24 11:12:00,66.5,57.0,29.82,North,353,1.0,8.0,72,0.00,,,0.00,weatherlink.com 1.10,2013-09-24 16:12:00,
2013-09-24 11:28:00,68.0,58.0,29.83,WNW,297,9.0,12.0,70,0.00,,,0.00,weatherlink.com 1.10,2013-09-24 16:28:00,
2013-09-24 11:41:00,68.9,57.0,29.83,NNE,28,4.0,15.0,67,0.00,,,0.00,weatherlink.com 1.10,2013-09-24 16:41:00,
2013-09-24 11:56:00,69.5,58.0,29.83,North,353,8.0,13.0,66,0.00,,,0.00,weatherlink.com 1.10,2013-09-24 16:56:00,
2013-09-24 12:13:00,69.5,57.0,29.84,NNE,16,7.0,13.0,65,0.00,,,0.00,weatherlink.com 1.10,2013-09-24 17:13:00,
2013-09-24 12:45:00,70.2,58.0,29.84,North,358,3.0,13.0,65,0.00,,,0.00,weatherlink.com 1.10,2013-09-24 17:45:00,
2013-09-24 12:57:00,71.0,58.0,29.84,NNE,19,5.0,11.0,64,0.00,,,0.00,weatherlink.com 1.10,2013-09-24 17:57:00,
2013-09-24 13:16:00,69.6,57.0,29.84,NNW,337,0.0,8.0,65,0.00,,,0.00,weatherlink.com 1.10,2013-09-24 18:16:00,
2013-09-24 13:28:00,70.0,58.0,29.84,NE,37,3.0,9.0,65,0.00,,,0.00,weatherlink.com 1.10,2013-09-24 18:28:00,
2013-09-24 13:46:00,69.9,58.0,29.84,North,11,5.0,11.0,65,0.00,,,0.00,weatherlink.com 1.10,2013-09-24 18:46:00,
2013-09-24 14:06:00,71.1,58.0,29.84,NNW,328,6.0,9.0,64,0.00,,,0.00,weatherlink.com 1.10,2013-09-24 19:06:00,
2013-09-24 14:16:00,70.2,57.0,29.84,NNE,14,1.0,10.0,64,0.00,,,0.00,weatherlink.com 1.10,2013-09-24 19:16:00,
2013-09-24 14:30:00,70.3,57.0,29.84,North,9,1.0,10.0,63,0.00,,,0.00,weatherlink.com 1.10,2013-09-24 19:30:00,
2013-09-24 14:45:00,70.3,57.0,29.84,NNW,341,4.0,8.0,64,0.00,,,0.00,weatherlink.com 1.10,2013-09-24 19:45:00,
2013-09-24 15:00:00,71.3,57.0,29.84,NNE,15,7.0,8.0,62,0.00,,,0.00,weatherlink.com 1.10,2013-09-24 20:00:00,
2013-09-24 15:15:00,70.8,57.0,29.84,North,349,3.0,6.0,63,0.00,,,0.00,weatherlink.com 1.10,2013-09-24 20:15:00,
2013-09-24 15:30:00,70.6,58.0,29.84,NNE,17,1.0,7.0,64,0.00,,,0.00,weatherlink.com 1.10,2013-09-24 20:30:00,
2013-09-24 15:45:00,70.3,58.0,29.84,NE,49,4.0,7.0,65,0.00,,,0.00,weatherlink.com 1.10,2013-09-24 20:45:00,
2013-09-24 16:01:00,70.2,58.0,29.84,North,351,3.0,4.0,65,0.00,,,0.00,weatherlink.com 1.10,2013-09-24 21:01:00,
2013-09-24 16:16:00,70.0,58.0,29.84,NNE,26,0.0,3.0,66,0.00,,,0.00,weatherlink.com 1.10,2013-09-24 21:16:00,
2013-09-24 16:32:00,69.6,58.0,29.85,North,6,2.0,5.0,66,0.00,,,0.00,weatherlink.com 1.10,2013-09-24 21:32:00,
2013-09-24 16:46:00,69.7,58.0,29.85,NNE,23,0.0,2.0,66,0.00,,,0.00,weatherlink.com 1.10,2013-09-24 21:46:00,
2013-09-24 17:02:00,69.7,58.0,29.86,NNE,20,0.0,4.0,66,0.00,,,0.00,weatherlink.com 1.10,2013-09-24 22:02:00,
2013-09-24 17:17:00,69.3,58.0,29.86,NNE,29,0.0,3.0,67,0.00,,,0.00,weatherlink.com 1.10,2013-09-24 22:17:00,
2013-09-24 17:32:00,69.4,58.0,29.86,NNE,26,1.0,4.0,67,0.00,,,0.00,weatherlink.com 1.10,2013-09-24 22:32:00,
2013-09-24 17:47:00,69.4,57.0,29.86,NNE,27,0.0,4.0,66,0.00,,,0.00,weatherlink.com 1.10,2013-09-24 22:47:00,
2013-09-24 18:03:00,69.2,58.0,29.86,NNE,20,1.0,6.0,68,0.00,,,0.00,weatherlink.com 1.10,2013-09-24 23:03:00,
2013-09-24 18:18:00,68.6,58.0,29.86,ENE,67,0.0,5.0,69,0.00,,,0.00,weatherlink.com 1.10,2013-09-24 23:18:00,
2013-09-24 18:35:00,68.0,58.0,29.86,NE,52,0.0,4.0,71,0.00,,,0.00,weatherlink.com 1.10,2013-09-24 23:35:00,
2013-09-24 18:51:00,67.3,58.0,29.87,East,88,1.0,2.0,72,0.00,,,0.00,weatherlink.com 1.10,2013-09-24 23:51:00,
2013-09-24 19:18:00,65.8,58.0,29.87,East,93,0.0,3.0,75,0.00,,,0.00,weatherlink.com 1.10,2013-09-25 00:18:00,
2013-09-24 19:36:00,64.5,57.0,29.87,East,93,0.0,0.0,77,0.00,,,0.00,weatherlink.com 1.10,2013-09-25 00:36:00,
2013-09-24 19:51:00,63.2,57.0,29.87,East,93,0.0,0.0,79,0.00,,,0.00,weatherlink.com 1.10,2013-09-25 00:51:00,
2013-09-24 20:06:00,62.1,56.0,29.87,East,93,0.0,0.0,81,0.00,,,0.00,weatherlink.com 1.10,2013-09-25 01:06:00,
2013-09-24 20:21:00,61.1,56.0,29.88,East,93,0.0,0.0,83,0.00,,,0.00,weatherlink.com 1.10,2013-09-25 01:21:00,
2013-09-24 20:37:00,60.1,55.0,29.88,East,93,0.0,0.0,84,0.00,,,0.00,weatherlink.com 1.10,2013-09-25 01:37:00,
2013-09-24 20:50:00,59.3,55.0,29.88,East,93,0.0,0.0,85,0.00,,,0.00,weatherlink.com 1.10,2013-09-25 01:50:00,
2013-09-24 21:05:00,58.3,55.0,29.88,East,93,0.0,0.0,87,0.00,,,0.00,weatherlink.com 1.10,2013-09-25 02:05:00,
2013-09-24 21:20:00,57.7,54.0,29.88,East,93,0.0,0.0,88,0.00,,,0.00,weatherlink.com 1.10,2013-09-25 02:20:00,
2013-09-24 21:35:00,57.5,54.0,29.88,East,93,0.0,0.0,89,0.00,,,0.00,weatherlink.com 1.10,2013-09-25 02:35:00,
2013-09-24 21:53:00,56.9,54.0,29.89,East,93,0.0,0.0,89,0.00,,,0.00,weatherlink.com 1.10,2013-09-25 02:53:00,
2013-09-24 22:06:00,56.4,54.0,29.89,East,93,0.0,0.0,90,0.00,,,0.00,weatherlink.com 1.10,2013-09-25 03:06:00,
2013-09-24 22:23:00,56.0,53.0,29.89,East,93,0.0,0.0,90,0.00,,,0.00,weatherlink.com 1.10,2013-09-25 03:23:00,
2013-09-24 22:38:00,55.7,53.0,29.89,East,93,0.0,0.0,91,0.00,,,0.00,weatherlink.com 1.10,2013-09-25 03:38:00,
2013-09-24 22:52:00,55.4,53.0,29.89,East,93,0.0,0.0,91,0.00,,,0.00,weatherlink.com 1.10,2013-09-25 03:52:00,
2013-09-24 23:07:00,55.3,53.0,29.89,East,93,0.0,0.0,91,0.00,,,0.00,weatherlink.com 1.10,2013-09-25 04:07:00,
2013-09-24 23:25:00,54.8,52.0,29.89,East,93,0.0,0.0,91,0.00,,,0.00,weatherlink.com 1.10,2013-09-25 04:25:00,
2013-09-24 23:38:00,54.4,52.0,29.89,East,93,0.0,0.0,92,0.00,,,0.00,weatherlink.com 1.10,2013-09-25 04:38:00,
2013-09-24 23:53:00,54.1,52.0,29.89,East,93,0.0,0.0,91,0.00,,,0.00,weatherlink.com 1.10,2013-09-25 04:53:00,